Location: Sternwarte ZA, Rosenfeld-Brittheim
(48.2889°N, 8.6789°E)
Time: 06:07:27
(UTC+01:00)

ISS - Pass Details

Date: 23 February 2020
Orbit: 415 x 423 km, 51.6° (Epoch: 27 February)

Event Time Altitude Azimuth Distance (km) Brightness Sun altitude
Exits shadow 05:54:53 - 201° (SSW) 1,868 -0.7 -14.8°
Reaches altitude 10° 05:55:58 10° 191° (SSW) 1,495 -1.1 -14.6°
Maximum altitude 05:58:35 21° 140° (SE) 994 -1.4 -14.1°
Drops below altitude 10° 06:01:14 10° 89° (E) 1,506 0.5 -13.7°
Sets 06:03:39 0° 73° (ENE) 2,376 1.6 -13.3°
